Regional Weather Roundup
Issued by NWS

Home | Current Version | Previous Version | Graphics & Text | Print | Product List | Glossary On
Versions: 1 2 3 4 5 6 7 8 9 10 11 12 13 14 15 16 17 18 19 20 21 22 23 24 25 26 27 28 29 30 31 32 33 34 35 36 37 38 39 40 41 42 43 44 45 46 47 48 49 50
000
ASUS43 KLMK 210410
RWRKY
KENTUCKY REGIONAL WEATHER ROUNDUP
NATIONAL WEATHER SERVICE LOUISVILLE KY
1200 AM EDT MON MAY 21 2018

NOTE "FAIR" INDICATES FEW OR NO CLOUDS BELOW 12,000 FEET
WITH NO SIGNIFICANT WEATHER AND/OR OBSTRUCTIONS TO VISIBILITY.

KYZ001>023-026-027-061>063-070>075-210500-
WESTERN AND SOUTH CENTRAL KENTUCKY

CITY           SKY/WX    TMP DP  RH WIND       PRES   REMARKS
PADUCAH        FAIR      69  65  86 SE6       30.07R
HENDERSON      NOT AVBL
OWENSBORO      FAIR      71  66  84 S5        30.12R
HOPKINSVILLE   DRIZZLE   68  68 100 SE7       30.12S
BOWLING GREEN  CLOUDY    70  68  93 CALM      30.12F
GLASGOW        LGT RAIN  66  64  91 CALM      30.10F
$$

KYZ024-025-028>034-038-045-046-053-210500-
NORTH CENTRAL KENTUCKY

CITY           SKY/WX    TMP DP  RH WIND       PRES   REMARKS
LOUISVILLE/SDF CLOUDY    78  66  66 SW3       30.08S
LOUISVILLE/LOU FAIR      78  67  68 SW3       30.09R
FORT KNOX      FAIR      72  66  81 S6        30.10S
$$

KYZ035>037-039>044-047>052-055>060-089>105-210500-
NORTHEAST KENTUCKY

CITY           SKY/WX    TMP DP  RH WIND       PRES   REMARKS
LEXINGTON      FAIR      75  65  70 S3        30.12S
COVINGTON      FAIR      68  63  84 S5        30.10F
FRANKFORT      FAIR      73  66  78 CALM      30.10R
$$

KYZ054-064>069-076>088-106>120-210500-
SOUTHEAST KENTUCKY

CITY           SKY/WX    TMP DP  RH WIND       PRES   REMARKS
JACKSON        FAIR      73  64  73 S3        30.14F
LONDON         FAIR      70  67  90 CALM      30.15S
SOMERSET       FAIR      70  68  94 MISG      30.16S
MIDDLESBORO    FAIR      66  66  98 CALM      30.17S
MONTICELLO     FAIR      72  66  81 W13       30.18R
$$





USA.gov is the U.S. government's official web portal to all federal, state and local government web resources and services.